Tracking 18980 objects as of 20-Feb-2018
HD Live streaming from Space Station
objects crossing your sky now

SL-14 R/B

Track SL-14 R/B now!
10-day predictions


NORAD ID: 16736
Int'l Code: 1986-039B
Perigee: 943.9 km
Apogee: 964.5 km
Inclination: 82.5 °
Period: 104.0 minutes
Semi major axis: 7325 km
RCS: 5.1168 m2 (large)
Launch date: May 27, 1986
Source: Commonwealth of Independent States (former USSR) (CIS)
Launch site: PLESETSK MISSILE AND SPACE COMPLEX (PKMTR)

Note: This is a ROCKET BODY
aabbcc
Your satellite tracking list
Your tracking list is empty




NASA's NSSDC Master Catalog

Two Line Element Set (TLE):
1 16736U 86039B   18050.87658072 +.00000020 +00000-0 +44820-5 0  9991
2 16736 082.5392 190.2024 0014070 120.7070 239.5479 13.84745217603719
Source of the keplerian elements: AFSPC